Starlink 4385

operational
NORAD ID: 53198 Int'l Des: 2022-084 Owner: SPXS Country: US Constellation: starlink
LEOCIRCULARRETROGRADESSO

About Starlink 4385

Description loading...

Live Position

Loading 3D Globe...

Upcoming Passes

Altitude History

Altitude vs Time

uPlot chart will show altitude changes over time

Two-Line Element Set

1 53198U 22084K 25299.13401985 .00000275 00000-0 25925-4 0 9991
2 53198 97.6036 358.4679 0002746 144.9654 215.1752 15.01257537179784
Epoch: Oct 26, 2025 • Age: 7 hours

Current Status

Altitude 571.5 km
Velocity 7.57 km/s
Sub-Earth Point -24.84°S, 17.68°W
Launch Date Jul 22, 2022
Age 3.2 years
Type internet

Technical Details

Classification Payload
Mass 297.00 kg
Dry Mass 275.00 kg
Total Mass 297.00 kg
Length 0.20 m
Diameter 2.80 m
Span 9.00 m
Shape Box + pan
Manufacturer SPXS
Bus Type Starlink
Phase Status In Orbit
Owner/State SPXS/US

Large Constellations

Loading constellations...